Coldwater, MI

8:52 AM EDT on May 24, 2018 (GMT -0400)
Branch County Memorial

Weather History for KOEB - October, 2012

Change the Weather History Date:

Saturday, October 27, 2012

  Actual Average (KJYM) Record (KJYM)
Temperature  
Mean Temperature 42 °F -  
Max Temperature 51 °F 57 °F 76 °F (2014)
Min Temperature 32 °F 35 °F 15 °F (1976)
Degree Days  
Heating Degree Days 24    
Moisture  
Dew Point 30 °F    
Average Humidity 64    
Maximum Humidity 90    
Minimum Humidity 34    
Precipitation  
Precipitation 0.00 in - - ()
Sea Level Pressure  
Sea Level Pressure 30.20 in    
Wind  
Wind Speed 7 mph (North)    
Max Wind Speed 13 mph    
Max Gust Speed 17 mph    
Visibility 10 miles    
Events      
Averages and records for this station are not official NWS values.
T = Trace of Precipitation, MM = Missing Value Source: NWS Daily Summary

Daily Weather History Graph

Daily Weather History Graph

Search for Another Location

Airport or City:

Astronomy

Oct. 27, 2012 Rise Set
Actual Time 8:07 AM EDT 6:40 PM EDT
Civil Twilight 7:38 AM EDT 7:08 PM EDT
Nautical Twilight 7:05 AM EDT 7:41 PM EDT
Astronomical Twilight 6:33 AM EDT 8:13 PM EDT
Moon 5:26 PM EDT (10/27) 6:00 AM EDT (10/27)
Length of Visible Light 11h 30m
Length of Day
10h 32m
Waxing Gibbous, 96% of the Moon is Illuminated
Oct 27
Waxing Gibbous
Oct 29
Full
Nov 6
Last Quarter
Nov 13
New
Nov 20
First Quarter

Hourly Weather History & Observations

Time (EDT) Temp. Windchill Dew Point Humidity Pressure Visibility Wind Dir Wind Speed Gust Speed Precip Events Conditions
12:35 AM 39.0 °F 34.8 °F 32.5 °F 78% 30.24 in 10.0 mi NNW 5.8 mph - N/A   Clear
12:54 AM 38.7 °F 34.3 °F 32.4 °F 78% 30.24 in 10.0 mi North 5.8 mph - N/A   Clear
1:15 AM 38.3 °F 33.2 °F 32.0 °F 78% 30.23 in 10.0 mi North 6.9 mph - N/A   Clear
1:35 AM 38.7 °F 32.9 °F 31.8 °F 76% 30.22 in 10.0 mi North 8.1 mph - N/A   Clear
1:54 AM 38.1 °F 32.3 °F 31.6 °F 77% 30.21 in 10.0 mi North 8.1 mph - N/A   Clear
2:15 AM 37.8 °F 31.3 °F 31.5 °F 78% 30.21 in 10.0 mi North 9.2 mph - N/A   Clear
2:34 AM 37.4 °F 31.4 °F 31.5 °F 79% 30.21 in 10.0 mi North 8.1 mph - N/A   Clear
2:55 AM 37.4 °F 30.8 °F 31.6 °F 80% 30.21 in 10.0 mi North 9.2 mph - N/A   Clear
3:15 AM 36.7 °F 31.2 °F 31.3 °F 81% 30.21 in 10.0 mi North 6.9 mph - N/A   Clear
3:34 AM 36.1 °F 30.6 °F 31.1 °F 82% 30.21 in 10.0 mi North 6.9 mph - N/A   Clear
3:55 AM 36.1 °F 31.4 °F 31.1 °F 82% 30.21 in 10.0 mi North 5.8 mph - N/A   Clear
4:15 AM 36.3 °F 31.6 °F 31.1 °F 81% 30.21 in 10.0 mi North 5.8 mph - N/A   Clear
4:34 AM 36.3 °F 30.1 °F 30.9 °F 81% 30.21 in 10.0 mi North 8.1 mph - N/A   Scattered Clouds
4:55 AM 36.3 °F 30.1 °F 30.9 °F 81% 30.21 in 10.0 mi North 8.1 mph - N/A   Scattered Clouds
5:14 AM 36.3 °F 30.8 °F 31.1 °F 81% 30.21 in 10.0 mi North 6.9 mph - N/A   Mostly Cloudy
5:35 AM 36.3 °F 30.8 °F 31.1 °F 81% 30.20 in 10.0 mi NNE 6.9 mph - N/A   Overcast
5:55 AM 36.9 °F 30.7 °F 31.3 °F 80% 30.21 in 10.0 mi North 8.1 mph - N/A   Overcast
6:14 AM 36.9 °F 30.7 °F 31.6 °F 81% 30.21 in 10.0 mi North 8.1 mph - N/A   Overcast
6:35 AM 37.0 °F 32.4 °F 31.8 °F 81% 30.21 in 10.0 mi North 5.8 mph - N/A   Overcast
6:55 AM 36.3 °F 31.6 °F 31.8 °F 84% 30.21 in 10.0 mi NNW 5.8 mph - N/A   Overcast
7:14 AM 34.9 °F 29.0 °F 31.1 °F 86% 30.21 in 10.0 mi NNW 6.9 mph - N/A   Mostly Cloudy
7:54 AM 33.6 °F 28.4 °F 30.6 °F 89% 30.22 in 10.0 mi North 5.8 mph - N/A   Clear
8:14 AM 32.9 °F 28.5 °F 30.2 °F 90% 30.22 in 10.0 mi NNW 4.6 mph - N/A   Clear
8:35 AM 33.8 °F 30.8 °F 30.7 °F 89% 30.23 in 10.0 mi North 3.5 mph - N/A   Clear
8:54 AM 35.1 °F 32.2 °F 31.1 °F 85% 30.24 in 10.0 mi North 3.5 mph - N/A   Clear
9:14 AM 36.5 °F 31.8 °F 31.6 °F 83% 30.23 in 10.0 mi North 5.8 mph - N/A   Clear
9:35 AM 38.1 °F 32.9 °F 32.0 °F 79% 30.23 in 10.0 mi North 6.9 mph - N/A   Clear
10:14 AM 40.1 °F 34.1 °F 32.4 °F 74% 30.24 in 10.0 mi North 9.2 mph - N/A   Clear
10:35 AM 41.2 °F 36.0 °F 32.2 °F 70% 30.23 in 10.0 mi NNE 8.1 mph - N/A   Clear
11:14 AM 43.3 °F 38.1 °F 32.4 °F 65% 30.24 in 10.0 mi North 9.2 mph - N/A   Clear
11:35 AM 44.8 °F 39.9 °F 32.2 °F 61% 30.23 in 10.0 mi North 9.2 mph - N/A   Clear
11:54 AM 45.7 °F 40.6 °F 31.5 °F 58% 30.23 in 10.0 mi North 10.4 mph - N/A   Clear
12:15 PM 47.1 °F - 32.0 °F 56% 30.22 in 10.0 mi North 8.1 mph - N/A   Clear
12:35 PM 47.8 °F - 30.7 °F 52% 30.21 in 10.0 mi North 11.5 mph 16.1 mph N/A   Clear
12:54 PM 48.4 °F - 28.9 °F 47% 30.21 in 10.0 mi North 9.2 mph - N/A   Clear
1:15 PM 49.1 °F - 28.8 °F 45% 30.20 in 10.0 mi North 9.2 mph - N/A   Clear
1:35 PM 49.3 °F - 28.9 °F 45% 30.19 in 10.0 mi North 10.4 mph - N/A   Clear
1:54 PM 50.0 °F - 28.4 °F 43% 30.18 in 10.0 mi North 10.4 mph - N/A   Clear
2:15 PM 50.4 °F - 27.1 °F 41% 30.17 in 10.0 mi North 9.2 mph - N/A   Clear
2:34 PM 50.7 °F - 28.0 °F 42% 30.16 in 10.0 mi North 8.1 mph - N/A   Clear
2:54 PM 50.9 °F - 26.1 °F 38% 30.16 in 10.0 mi North 10.4 mph - N/A   Clear
3:15 PM 51.1 °F - 24.3 °F 35% 30.15 in 10.0 mi North 12.7 mph 16.1 mph N/A   Clear
3:34 PM 51.3 °F - 25.7 °F 37% 30.14 in 10.0 mi North 11.5 mph - N/A   Clear
3:54 PM 51.8 °F - 25.5 °F 36% 30.15 in 10.0 mi NNE 10.4 mph 16.1 mph N/A   Clear
4:15 PM 51.3 °F - 24.1 °F 35% 30.15 in 10.0 mi North 12.7 mph 17.3 mph N/A   Clear
4:34 PM 51.1 °F - 24.4 °F 35% 30.15 in 10.0 mi North 11.5 mph 16.1 mph N/A   Clear
4:55 PM 51.1 °F - 23.7 °F 34% 30.15 in 10.0 mi North 10.4 mph - N/A   Clear
5:15 PM 50.9 °F - 26.1 °F 38% 30.15 in 10.0 mi North 10.4 mph 16.1 mph N/A   Clear
5:34 PM 50.2 °F - 26.4 °F 40% 30.15 in 10.0 mi North 10.4 mph - N/A   Clear
5:55 PM 49.3 °F - 27.1 °F 42% 30.15 in 10.0 mi North 10.4 mph - N/A   Clear
6:15 PM 48.4 °F - 27.3 °F 44% 30.16 in 10.0 mi North 8.1 mph - N/A   Clear
6:34 PM 47.3 °F - 27.1 °F 46% 30.16 in 10.0 mi NNE 9.2 mph - N/A   Clear
6:55 PM 46.4 °F 42.9 °F 27.3 °F 47% 30.17 in 10.0 mi North 6.9 mph - N/A   Clear
7:15 PM 44.2 °F 42.7 °F 28.4 °F 54% 30.18 in 10.0 mi North 3.5 mph - N/A   Clear
7:34 PM 44.4 °F 42.9 °F 28.0 °F 53% 30.19 in 10.0 mi North 3.5 mph - N/A   Clear
7:55 PM 43.3 °F 41.7 °F 28.6 °F 56% 30.19 in 10.0 mi North 3.5 mph - N/A   Clear
8:14 PM 42.6 °F 39.9 °F 29.1 °F 59% 30.19 in 10.0 mi North 4.6 mph - N/A   Clear
8:34 PM 42.1 °F 39.2 °F 29.7 °F 61% 30.19 in 10.0 mi NNE 4.6 mph - N/A   Clear
8:55 PM 41.9 °F 39.0 °F 29.8 °F 62% 30.19 in 10.0 mi North 4.6 mph - N/A   Clear
9:14 PM 41.4 °F 39.4 °F 30.2 °F 65% 30.19 in 10.0 mi North 3.5 mph - N/A   Clear
9:34 PM 41.5 °F 38.6 °F 30.7 °F 65% 30.20 in 10.0 mi NNE 4.6 mph - N/A   Scattered Clouds
9:54 PM 41.7 °F 38.0 °F 32.0 °F 68% 30.19 in 10.0 mi NNE 5.8 mph - N/A   Scattered Clouds
10:14 PM 41.5 °F 39.6 °F 31.8 °F 68% 30.20 in 10.0 mi NNE 3.5 mph - N/A   Clear
10:35 PM 40.3 °F - 31.8 °F 72% 30.20 in 10.0 mi Calm Calm - N/A   Clear
10:54 PM 40.1 °F - 31.5 °F 71% 30.21 in 10.0 mi Calm Calm - N/A   Scattered Clouds
11:15 PM 40.1 °F 38.0 °F 31.8 °F 72% 30.20 in 10.0 mi North 3.5 mph - N/A   Scattered Clouds
11:34 PM 39.2 °F 37.0 °F 32.0 °F 75% 30.20 in 10.0 mi NNE 3.5 mph - N/A   Clear
11:54 PM 38.5 °F 35.0 °F 32.0 °F 78% 30.19 in 10.0 mi NE 4.6 mph - N/A   Clear